When you browse on this site, cookies collect data to enhance your experience and personalize the content and advertising you see.
Visit our Privacy Policy to learn more. By continuing to use the site, you agree to this use of cookies and data.
  • In Österreich
  • Länderverzeichnis
  • Für 7 Tage
  • Wassertemperatur
  • Wetterkarte
  • News
  • Widgets
  • user-avatar
    Anmelden

    Stündliche Wetter Tetepango

    Heute, 14 Oktober, Montag

    Zeit Temperatur Niederschläge Wind Luftdruck Luftfeuchtigkeit
    00:00 +15°C° 0 mm 1 m/S 589 mmHg 95%
    01:00 +14°C° 0 mm 1 m/S 589 mmHg 94%
    02:00 +14°C° 0 mm 1 m/S 589 mmHg 93%
    03:00 +13°C° 0 mm 0 m/S 588 mmHg 93%
    04:00 +12°C° 0 mm 0 m/S 588 mmHg 93%
    05:00 +12°C° 0 mm 0 m/S 588 mmHg 90%
    06:00 +13°C° 0 mm 0 m/S 589 mmHg 86%
    07:00 +14°C° 0 mm 0 m/S 590 mmHg 81%
    08:00 +16°C° 0 mm 1 m/S 590 mmHg 77%
    09:00 +19°C° 0 mm 1 m/S 591 mmHg 66%
    10:00 +20°C° 0 mm 2 m/S 591 mmHg 54%
    11:00 +24°C° 0 mm 2 m/S 592 mmHg 43%
    12:00 +24°C° 0 mm 3 m/S 592 mmHg 42%
    13:00 +25°C° 0 mm 4 m/S 591 mmHg 40%
    14:00 +25°C° 0 mm 5 m/S 591 mmHg 39%
    15:00 +23°C° 0 mm 5 m/S 590 mmHg 48%
    16:00 +21°C° 0 mm 4 m/S 590 mmHg 58%
    17:00 +19°C° 0 mm 4 m/S 589 mmHg 67%
    18:00 +18°C° 0 mm 3 m/S 589 mmHg 75%
    19:00 +17°C° 0 mm 2 m/S 589 mmHg 83%
    20:00 +15°C° 0 mm 1 m/S 590 mmHg 91%
    21:00 +15°C° 0 mm 1 m/S 589 mmHg 92%
    22:00 +15°C° 0 mm 1 m/S 589 mmHg 93%
    23:00 +14°C° 0 mm 1 m/S 589 mmHg 93%

    Morgen, 15 Oktober, Dienstag

    Zeit Temperatur Niederschläge Wind Luftdruck Luftfeuchtigkeit
    00:00 +14°C° 0 mm 1 m/S 589 mmHg 94%
    01:00 +13°C° 0 mm 0 m/S 588 mmHg 94%
    02:00 +12°C° 0 mm 0 m/S 588 mmHg 94%
    03:00 +12°C° 0 mm 0 m/S 588 mmHg 95%
    04:00 +12°C° 0 mm 0 m/S 588 mmHg 95%
    05:00 +11°C° 0 mm 0 m/S 588 mmHg 96%
    06:00 +13°C° 0 mm 0 m/S 588 mmHg 90%
    07:00 +14°C° 0 mm 0 m/S 589 mmHg 84%
    08:00 +18°C° 0 mm 1 m/S 590 mmHg 77%
    09:00 +20°C° 0 mm 1 m/S 591 mmHg 67%
    10:00 +21°C° 0 mm 2 m/S 591 mmHg 56%
    11:00 +23°C° 0 mm 2 m/S 591 mmHg 46%
    12:00 +24°C° 0 mm 3 m/S 591 mmHg 44%
    13:00 +25°C° 0 mm 4 m/S 590 mmHg 43%
    14:00 +25°C° 0 mm 5 m/S 590 mmHg 41%
    15:00 +23°C° 0 mm 4 m/S 589 mmHg 51%
    16:00 +21°C° 0 mm 4 m/S 589 mmHg 60%
    17:00 +19°C° 0 mm 4 m/S 588 mmHg 69%
    18:00 +18°C° 0.1 mm 3 m/S 588 mmHg 77%
    19:00 +17°C° 0.1 mm 2 m/S 588 mmHg 84%
    20:00 +16°C° 0.1 mm 1 m/S 588 mmHg 91%
    21:00 +15°C° 0 mm 1 m/S 588 mmHg 93%
    22:00 +15°C° 0 mm 1 m/S 588 mmHg 94%
    23:00 +15°C° 0 mm 1 m/S 588 mmHg 96%

    übermorgen, 16 Oktober, Mittwoch

    Zeit Temperatur Niederschläge Wind Luftdruck Luftfeuchtigkeit
    00:00 +15°C° 0 mm 1 m/S 588 mmHg 95%
    01:00 +15°C° 0 mm 1 m/S 588 mmHg 94%
    02:00 +15°C° 0 mm 1 m/S 587 mmHg 92%
    03:00 +15°C° 0 mm 1 m/S 588 mmHg 90%
    04:00 +15°C° 0 mm 2 m/S 588 mmHg 88%
    05:00 +15°C° 0 mm 2 m/S 588 mmHg 87%
    06:00 +16°C° 0 mm 2 m/S 588 mmHg 83%
    07:00 +16°C° 0 mm 2 m/S 589 mmHg 79%
    08:00 +17°C° 0 mm 2 m/S 589 mmHg 75%
    09:00 +18°C° 0 mm 3 m/S 589 mmHg 71%
    10:00 +19°C° 0 mm 3 m/S 589 mmHg 67%
    11:00 +20°C° 0 mm 3 m/S 589 mmHg 64%
    12:00 +20°C° 0.1 mm 4 m/S 589 mmHg 66%
    13:00 +20°C° 0.1 mm 4 m/S 588 mmHg 68%
    14:00 +19°C° 0.1 mm 5 m/S 588 mmHg 70%
    15:00 +19°C° 0.1 mm 4 m/S 587 mmHg 74%
    16:00 +18°C° 0.1 mm 4 m/S 587 mmHg 78%
    17:00 +17°C° 0.1 mm 3 m/S 587 mmHg 81%
    18:00 +17°C° 0.1 mm 3 m/S 587 mmHg 84%
    19:00 +16°C° 0.1 mm 2 m/S 588 mmHg 87%
    20:00 +16°C° 0.1 mm 2 m/S 588 mmHg 90%
    21:00 +16°C° 0.1 mm 2 m/S 588 mmHg 90%
    22:00 +16°C° 0.1 mm 2 m/S 588 mmHg 91%
    23:00 +16°C° 0.1 mm 2 m/S 588 mmHg 91%

    17 Oktober, Donnerstag

    Zeit Temperatur Niederschläge Wind Luftdruck Luftfeuchtigkeit
    00:00 +16°C° 0.1 mm 2 m/S 588 mmHg 92%
    01:00 +15°C° 0.1 mm 2 m/S 587 mmHg 93%
    02:00 +15°C° 0.1 mm 2 m/S 587 mmHg 94%
    03:00 +15°C° 0.2 mm 2 m/S 587 mmHg 94%
    04:00 +15°C° 0.2 mm 1 m/S 587 mmHg 94%
    05:00 +15°C° 0.2 mm 1 m/S 587 mmHg 94%
    06:00 +15°C° 0.3 mm 1 m/S 588 mmHg 92%
    07:00 +16°C° 0.3 mm 1 m/S 588 mmHg 91%
    08:00 +16°C° 0.3 mm 1 m/S 589 mmHg 89%
    09:00 +16°C° 0.2 mm 1 m/S 589 mmHg 87%
    10:00 +18°C° 0.2 mm 1 m/S 589 mmHg 86%
    11:00 +18°C° 0.2 mm 1 m/S 589 mmHg 84%
    12:00 +19°C° 0.5 mm 1 m/S 589 mmHg 79%
    13:00 +19°C° 0.5 mm 2 m/S 588 mmHg 74%
    14:00 +20°C° 0.5 mm 2 m/S 588 mmHg 69%
    15:00 +19°C° 0.4 mm 2 m/S 588 mmHg 73%
    16:00 +18°C° 0.4 mm 2 m/S 588 mmHg 77%
    17:00 +17°C° 0.4 mm 2 m/S 588 mmHg 81%
    18:00 +17°C° 0.4 mm 2 m/S 588 mmHg 85%
    19:00 +16°C° 0.4 mm 1 m/S 588 mmHg 89%
    20:00 +16°C° 0.4 mm 1 m/S 588 mmHg 93%
    21:00 +16°C° 0.1 mm 1 m/S 588 mmHg 94%
    22:00 +15°C° 0.1 mm 1 m/S 588 mmHg 94%
    23:00 +14°C° 0.1 mm 0 m/S 588 mmHg 95%

    18 Oktober, Freitag

    Zeit Temperatur Niederschläge Wind Luftdruck Luftfeuchtigkeit
    00:00 +14°C° 0 mm 0 m/S 587 mmHg 95%
    01:00 +14°C° 0 mm 0 m/S 587 mmHg 95%
    02:00 +14°C° 0 mm 0 m/S 587 mmHg 95%
    03:00 +14°C° 0 mm 0 m/S 587 mmHg 94%
    04:00 +14°C° 0 mm 0 m/S 587 mmHg 93%
    05:00 +14°C° 0 mm 0 m/S 587 mmHg 93%
    06:00 +15°C° 0 mm 0 m/S 588 mmHg 88%
    07:00 +16°C° 0 mm 0 m/S 588 mmHg 84%
    08:00 +18°C° 0 mm 1 m/S 589 mmHg 80%
    09:00 +19°C° 0.1 mm 1 m/S 589 mmHg 76%
    10:00 +20°C° 0.1 mm 1 m/S 589 mmHg 72%
    11:00 +21°C° 0.1 mm 1 m/S 589 mmHg 69%
    12:00 +21°C° 0.2 mm 1 m/S 588 mmHg 67%
    13:00 +21°C° 0.2 mm 2 m/S 588 mmHg 65%
    14:00 +21°C° 0.2 mm 2 m/S 587 mmHg 64%
    15:00 +20°C° 0.2 mm 2 m/S 587 mmHg 67%
    16:00 +20°C° 0.2 mm 2 m/S 587 mmHg 71%
    17:00 +19°C° 0.2 mm 2 m/S 587 mmHg 74%
    18:00 +20°C° 0.3 mm 1 m/S 587 mmHg 76%
    19:00 +19°C° 0.3 mm 1 m/S 588 mmHg 78%
    20:00 +19°C° 0.3 mm 1 m/S 588 mmHg 80%
    21:00 +18°C° 0.1 mm 1 m/S 588 mmHg 82%
    22:00 +18°C° 0.1 mm 1 m/S 588 mmHg 84%
    23:00 +18°C° 0.1 mm 1 m/S 587 mmHg 86%

    19 Oktober, Samstag

    Zeit Temperatur Niederschläge Wind Luftdruck Luftfeuchtigkeit
    00:00 +18°C° 0.1 mm 1 m/S 587 mmHg 86%
    01:00 +18°C° 0.1 mm 1 m/S 587 mmHg 86%
    02:00 +18°C° 0.1 mm 1 m/S 587 mmHg 86%
    03:00 +16°C° 0 mm 1 m/S 587 mmHg 88%
    04:00 +15°C° 0 mm 0 m/S 586 mmHg 89%
    05:00 +14°C° 0 mm 0 m/S 586 mmHg 90%
    06:00 +16°C° 0 mm 1 m/S 587 mmHg 84%
    07:00 +18°C° 0 mm 1 m/S 587 mmHg 79%
    08:00 +20°C° 0 mm 1 m/S 588 mmHg 73%
    09:00 +21°C° 0 mm 1 m/S 588 mmHg 66%
    10:00 +23°C° 0 mm 2 m/S 589 mmHg 60%
    11:00 +24°C° 0 mm 3 m/S 589 mmHg 53%
    12:00 +23°C° 0.3 mm 4 m/S 588 mmHg 54%
    13:00 +23°C° 0.3 mm 4 m/S 588 mmHg 55%
    14:00 +25°C° 0.3 mm 5 m/S 587 mmHg 56%
    15:00 +22°C° 1.2 mm 5 m/S 587 mmHg 64%
    16:00 +20°C° 1.2 mm 4 m/S 586 mmHg 72%
    17:00 +19°C° 1.2 mm 4 m/S 586 mmHg 81%
    18:00 +18°C° 1.1 mm 3 m/S 586 mmHg 84%
    19:00 +17°C° 1.1 mm 2 m/S 586 mmHg 86%
    20:00 +17°C° 1.1 mm 2 m/S 587 mmHg 89%
    21:00 +17°C° 2.5 mm 2 m/S 587 mmHg 91%
    22:00 +16°C° 2.5 mm 1 m/S 587 mmHg 92%
    23:00 +16°C° 2.5 mm 1 m/S 587 mmHg 93%
    Mehr zeigen